TimeCDT,TemperatureF,Dew PointF,Humidity,Sea Level PressureIn,VisibilityMPH,Wind Direction,Wind SpeedMPH,Gust SpeedMPH,PrecipitationIn,Events,Conditions,WindDirDegrees,DateUTC
12:52 AM,71.1,59.0,66,29.96,10.0,SE,8.1,-,N/A,,Clear,140,2013-07-05 05:52:00
1:52 AM,68.0,57.9,70,29.95,10.0,SE,5.8,-,N/A,,Clear,140,2013-07-05 06:52:00
2:52 AM,66.9,57.9,73,29.95,10.0,SE,6.9,-,N/A,,Clear,130,2013-07-05 07:52:00
3:52 AM,64.0,57.9,80,29.95,10.0,SE,5.8,-,N/A,,Clear,140,2013-07-05 08:52:00
4:52 AM,63.0,57.9,84,29.96,10.0,SE,6.9,-,N/A,,Clear,140,2013-07-05 09:52:00
5:52 AM,62.1,57.0,84,29.96,9.0,SE,6.9,-,N/A,,Clear,130,2013-07-05 10:52:00
6:52 AM,64.0,59.0,84,29.97,8.0,SE,8.1,-,N/A,,Clear,130,2013-07-05 11:52:00
7:52 AM,66.9,60.1,79,29.98,7.0,SE,8.1,-,N/A,,Clear,130,2013-07-05 12:52:00
8:52 AM,73.9,60.1,62,29.99,8.0,South,10.4,-,N/A,,Clear,170,2013-07-05 13:52:00
9:52 AM,79.0,62.1,56,29.97,10.0,SSE,8.1,-,N/A,,Clear,160,2013-07-05 14:52:00
10:52 AM,82.0,61.0,49,29.97,10.0,South,10.4,-,N/A,,Clear,190,2013-07-05 15:52:00
11:52 AM,84.9,61.0,44,29.97,10.0,South,9.2,-,N/A,,Clear,190,2013-07-05 16:52:00
12:52 PM,87.1,61.0,41,29.95,10.0,SSW,11.5,-,N/A,,Clear,200,2013-07-05 17:52:00
1:52 PM,88.0,61.0,40,29.94,10.0,South,12.7,20.7,N/A,,Clear,190,2013-07-05 18:52:00
2:52 PM,90.0,57.0,33,29.92,10.0,South,13.8,18.4,N/A,,Clear,190,2013-07-05 19:52:00
3:52 PM,91.0,59.0,34,29.92,10.0,SSW,17.3,20.7,N/A,,Clear,200,2013-07-05 20:52:00
4:52 PM,90.0,60.1,37,29.90,10.0,South,13.8,19.6,N/A,,Clear,190,2013-07-05 21:52:00
5:52 PM,89.1,59.0,36,29.88,10.0,South,11.5,-,N/A,,Clear,180,2013-07-05 22:52:00
6:52 PM,88.0,57.0,35,29.88,10.0,South,11.5,-,N/A,,Clear,170,2013-07-05 23:52:00
7:52 PM,82.9,59.0,44,29.88,10.0,SSE,6.9,-,N/A,,Clear,160,2013-07-06 00:52:00
8:52 PM,79.0,62.1,56,29.88,10.0,SSE,5.8,-,N/A,,Clear,160,2013-07-06 01:52:00
9:52 PM,75.9,62.1,62,29.90,10.0,SSE,5.8,-,N/A,,Clear,150,2013-07-06 02:52:00
10:52 PM,73.0,61.0,66,29.92,10.0,SSE,6.9,-,N/A,,Clear,160,2013-07-06 03:52:00
11:52 PM,72.0,61.0,68,29.91,10.0,SSE,6.9,-,N/A,,Clear,160,2013-07-06 04:52:00